Flag for U.S.A. Weather past 2 weeks in Roanoke, Virginia, U.S.A.

Now
56 °F

Overcast.


Feels Like: 56 °F
Forecast: 53 / 67 °F
Wind: No wind

Location: Roanoke Regional Airport

Current Time: Sep 24, 2014 at 1:07:53 AM

Latest Report: Sep 23, 2014 at 11:54 PM


Visibility: 10 mi

Pressure: 30.37 "Hg

Humidity: 84%

Dew point: 51 °F

Location of RoanokeLocation

Historic Weather in Roanoke — Graph

°F

Roanoke temperature yesterday

Maximum temperature yesterday: 62 °F (at 2:54 PM)
Minimum temperature yesterday: 47 °F (at 6:54 AM)
Average temperature yesterday: 56 °F

Past Weeks' High & Low Weather Summary

 TemperatureHumidityPressure
High86 °F (Sep 11, 12:54 PM)97% (Sep 11, 2:54 AM)30.38 "Hg (Sep 11, 2:54 AM)
Low47 °F (Sep 23, 6:54 AM)43% (Sep 22, 2:54 PM)29.77 "Hg (Sep 21, 4:54 PM)
Average66 °F76%30.11 "Hg
* Reported Sep 8 11:54 PM — Sep 23 11:54 PM, Roanoke, Weather by CustomWeather, © 2014

Note: Actual official high and low records may vary slightly from our data, if they occured in-between our weather recording intervals... More about our weather records

Advertising

Roanoke weather history for previous 24 hours

 ConditionsComfort  
Time TempWeatherWind HumidityBarometerVisibility
11:54 PM
Sep 23
56 °FOvercast.No wind84%30.37 "Hg10 mi
10:54 PM54 °FOvercast.3 mph90%30.37 "Hg10 mi
9:54 PM56 °FOvercast.3 mph84%30.37 "Hg10 mi
8:54 PM55 °FClear.8 mph87%30.37 "Hg10 mi
7:54 PM57 °FOvercast.3 mph78%30.34 "Hg10 mi
6:54 PM59 °FOvercast.5 mph72%30.33 "Hg10 mi
5:54 PM61 °FOvercast.No wind65%30.32 "Hg10 mi
4:54 PM61 °FOvercast.8 mph62%30.34 "Hg10 mi
3:54 PM61 °FOvercast.5 mph65%30.33 "Hg10 mi
2:54 PM62 °FOvercast.No wind60%30.34 "Hg10 mi
1:54 PM61 °FOvercast.3 mph62%30.34 "Hg10 mi
12:54 PM59 °FMostly cloudy.5 mph64%30.38 "Hg10 mi
11:54 AM58 °FBroken clouds.3 mph65%30.38 "Hg10 mi
10:54 AM56 °FBroken clouds.No wind70%30.37 "Hg10 mi
9:54 AM56 °FScattered clouds.3 mph72%30.38 "Hg10 mi
8:54 AM53 °FScattered clouds.No wind77%30.37 "Hg10 mi
7:54 AM50 °FPassing clouds.No wind83%30.33 "Hg10 mi
6:54 AM47 °FPassing clouds.3 mph90%30.31 "Hg10 mi
5:54 AM50 °FClear.No wind83%30.28 "Hg10 mi
4:54 AM50 °FClear.3 mph86%30.27 "Hg10 mi
3:54 AM53 °FClear.8 mph72%30.25 "Hg10 mi
2:54 AM53 °FPassing clouds.7 mph74%30.25 "Hg10 mi
1:54 AM55 °FPassing clouds.12 mph69%30.24 "Hg10 mi
Weather by CustomWeather, © 2014

See weather overviewHow to use our weather pages